Date,TemperatureHighF,TemperatureAvgF,TemperatureLowF,DewpointHighF,DewpointAvgF,DewpointLowF,HumidityHigh,HumidityAvg,HumidityLow,PressureMaxIn,PressureMinIn,WindSpeedMaxMPH,WindSpeedAvgMPH,GustSpeedMaxMPH,PrecipitationSumIn
2013-1-1,27.2,21.0,16.0,20.4,16.3,11.6,88,82,73,30.46,30.31,0,0,0,0.00
2013-1-2,25.2,20.6,18.4,17.2,14.4,11.5,84,77,69,30.44,30.35,0,0,0,0.00
2013-1-3,30.2,23.0,18.0,15.3,12.8,10.6,75,65,52,30.35,30.19,0,0,0,0.00
2013-1-4,30.1,25.4,19.1,17.4,13.9,10.5,69,62,55,30.34,30.28,0,0,0,0.00
2013-1-5,32.9,25.0,16.9,17.6,13.4,9.1,71,61,49,30.31,30.13,0,0,0,0.00
2013-1-6,34.7,28.9,23.9,22.1,18.4,16.4,75,65,58,30.15,30.06,0,0,0,0.00
2013-1-7,32.0,26.7,22.3,26.9,21.9,17.2,90,82,70,30.10,29.99,0,0,0,0.00
2013-1-8,37.4,31.4,22.7,33.0,28.0,19.4,91,87,84,30.15,30.00,0,0,0,0.00
2013-1-9,42.8,37.4,30.6,35.3,32.2,27.2,90,81,71,30.01,29.69,0,0,0,0.00
2013-1-10,33.5,29.5,26.3,27.6,24.3,22.1,89,81,69,29.85,29.79,0,0,0,0.00
2013-1-11,26.6,22.7,15.7,23.9,17.2,11.3,89,79,71,30.13,29.85,0,0,0,0.00
2013-1-12,22.0,14.4,6.5,15.0,9.7,3.1,87,82,72,30.20,30.13,0,0,0,0.00
2013-1-13,26.5,17.9,11.9,18.9,12.9,8.0,88,81,70,30.29,30.20,0,0,0,0.00
2013-1-14,27.2,18.3,12.2,19.0,12.7,8.0,84,79,70,30.40,30.24,0,0,0,0.00
2013-1-15,25.7,17.0,9.9,17.6,11.8,6.4,87,80,69,30.56,30.40,0,0,0,0.00
2013-1-16,27.7,17.7,9.9,19.3,12.1,6.5,88,79,68,30.58,30.48,0,0,0,0.00
2013-1-17,27.2,21.8,16.9,17.5,14.5,11.5,79,74,64,30.55,30.38,0,0,0,0.00
2013-1-18,29.9,22.8,16.2,19.8,15.1,10.5,80,72,63,30.38,30.29,0,0,0,0.00
2013-1-19,29.9,20.7,14.6,18.8,13.2,8.6,80,73,62,30.44,30.35,0,0,0,0.00
2013-1-20,31.1,21.6,14.9,19.6,13.6,8.7,79,71,59,30.46,30.37,0,0,0,0.00
2013-1-21,33.8,23.0,15.1,20.6,14.2,9.2,79,69,55,30.37,30.21,0,0,0,0.00
2013-1-22,34.7,27.8,20.5,21.1,16.7,12.2,72,63,51,30.24,30.08,0,0,0,0.00
2013-1-23,38.3,34.8,30.4,28.5,20.7,16.5,73,56,48,30.09,29.94,0,0,0,0.00
2013-1-24,43.2,36.7,31.3,34.5,31.0,27.9,88,80,68,30.18,30.06,0,0,0,0.00
2013-1-25,41.0,38.0,36.5,37.5,35.1,33.2,92,89,82,30.13,29.90,0,0,0,0.17
2013-1-26,42.3,36.3,31.1,39.3,33.5,28.4,94,89,79,29.93,29.85,0,0,0,0.14
2013-1-27,42.3,32.5,27.9,36.5,28.6,24.2,91,85,74,29.97,29.92,0,0,0,0.02
2013-1-28,39.2,32.7,28.4,34.2,29.4,25.7,93,88,76,29.95,29.85,0,0,0,0.02
2013-1-29,38.0,35.8,33.7,35.3,33.2,31.1,92,91,88,30.17,29.85,0,0,0,0.14
2013-1-30,46.4,40.6,36.4,40.3,36.6,34.1,92,86,75,30.25,30.16,0,0,0,0.03
2013-1-31,50.0,42.1,38.5,42.1,37.3,34.1,91,83,72,30.27,30.19,0,0,0,0.00
2013-2-1,52.6,39.4,28.4,40.1,32.7,25.0,88,78,59,30.37,30.20,0,0,0,0.00
2013-2-2,45.5,33.0,24.1,36.2,28.5,21.9,93,84,65,30.40,30.22,0,0,0,0.01
2013-2-3,47.3,34.7,26.3,35.4,29.0,23.2,90,80,62,30.22,30.11,0,0,0,0.00
2013-2-4,43.4,36.4,32.2,34.7,30.8,28.5,87,80,70,30.12,29.96,0,0,0,0.00
2013-2-5,50.0,38.9,32.0,37.2,32.1,28.5,89,77,59,29.96,29.84,0,0,0,0.02
2013-2-6,46.1,37.7,31.0,36.0,30.1,27.1,89,75,57,30.07,29.91,0,0,0,0.00
2013-2-7,40.1,36.1,28.8,33.7,29.1,24.8,86,76,63,29.99,29.88,0,0,0,0.05
2013-2-8,41.4,33.0,27.7,31.9,26.4,23.4,86,77,65,30.04,29.99,0,0,0,0.00
2013-2-9,43.9,35.8,30.6,31.1,27.3,24.6,83,72,53,30.07,29.99,0,0,0,0.00
2013-2-10,47.5,35.8,29.2,31.8,27.3,23.1,84,72,48,30.17,30.08,0,0,0,0.00
2013-2-11,47.9,34.9,22.9,34.6,26.5,18.5,85,72,55,30.19,30.10,0,0,0,0.00
2013-2-12,52.9,41.5,36.9,37.6,33.5,30.6,81,73,51,30.28,30.18,0,0,0,0.00
2013-2-13,52.2,42.5,36.4,36.0,32.0,28.0,80,67,49,30.31,30.21,0,0,0,0.00
2013-2-14,54.7,42.0,32.2,36.2,31.5,26.2,80,67,47,30.43,30.32,0,0,0,0.00
2013-2-15,53.6,41.0,29.3,38.4,32.6,25.7,89,73,51,30.43,30.23,0,0,0,0.00
2013-2-16,55.4,41.5,32.9,37.8,33.1,27.7,88,73,48,30.23,29.98,0,0,0,0.13
2013-2-17,47.3,35.1,24.5,30.5,24.8,19.1,80,67,47,30.09,30.02,0,0,0,0.00
2013-2-18,43.0,33.4,22.5,27.5,23.0,18.4,87,67,49,30.05,29.70,0,0,0,0.00
2013-2-19,42.1,35.3,29.0,34.4,28.8,24.0,87,77,63,29.85,29.65,0,0,0,0.03
2013-2-20,46.6,34.5,28.8,31.0,26.0,23.9,83,72,45,29.94,29.85,0,0,0,0.00
2013-2-21,39.6,33.6,29.3,33.6,28.5,23.7,90,82,70,30.02,29.94,0,0,0,0.03
2013-2-22,39.6,33.7,31.0,34.0,31.0,28.4,94,90,80,30.02,29.77,0,0,0,0.27
2013-2-23,41.8,33.0,26.6,32.3,28.1,22.9,90,82,68,30.22,29.82,0,0,0,0.18
2013-2-24,48.6,33.4,25.7,32.7,25.7,21.2,88,74,51,30.28,30.05,0,0,0,0.11
2013-2-25,45.9,35.8,30.1,35.9,27.3,21.8,88,71,57,30.15,29.96,0,0,0,0.04
2013-2-26,50.0,35.8,30.1,30.1,24.1,21.2,77,63,42,30.27,30.15,0,0,0,0.01
2013-2-27,48.6,38.2,27.2,29.2,25.3,19.5,75,61,44,30.26,30.19,0,0,0,0.00
2013-2-28,38.2,38.1,38.0,36.0,35.7,35.6,92,91,91,30.38,30.36,0,0,0,0.01
2013-3-1,53.8,42.6,35.3,43.8,38.0,33.1,94,84,67,30.42,30.32,0,0,0,0.02
2013-3-2,56.3,48.5,42.8,41.9,40.0,38.8,87,73,57,30.08,29.99,0,0,0,0.07
2013-3-3,49.5,37.8,27.7,38.9,25.2,17.6,87,63,36,30.13,29.98,0,0,0,0.06
2013-3-4,46.4,32.8,19.4,32.7,21.4,16.1,88,66,39,30.20,30.01,0,0,0,0.01
2013-3-5,45.2,40.6,36.0,28.6,22.0,16.4,63,48,42,30.01,29.72,0,0,0,0.00
2013-3-6,53.5,41.1,30.2,38.4,32.2,25.4,89,72,49,29.90,29.59,0,0,0,0.23
2013-3-7,54.0,36.6,26.6,36.6,26.3,22.0,89,69,39,30.01,29.90,0,0,0,0.01
2013-3-8,54.4,37.7,24.8,32.7,26.7,19.9,83,66,32,30.07,29.91,0,0,0,0.00
2013-3-9,59.0,40.7,29.0,35.9,26.1,18.4,83,59,30,30.35,30.07,0,0,0,0.00
2013-3-10,60.1,40.9,25.2,37.6,27.3,17.7,86,61,28,30.38,30.23,0,0,0,0.05
2013-3-11,55.4,45.0,40.5,41.6,38.2,35.7,89,78,53,30.27,30.19,0,0,0,0.05
2013-3-12,62.3,48.4,37.3,46.0,38.8,34.6,92,71,43,30.19,30.07,0,0,0,0.00
2013-3-13,66.4,50.9,40.9,44.5,37.4,32.7,80,62,37,30.17,30.10,0,0,0,0.00
2013-3-14,70.0,51.2,37.1,44.4,37.2,30.9,81,61,35,30.13,30.00,0,0,0,0.00
2013-3-15,63.0,50.9,42.3,43.7,37.8,33.9,77,62,38,30.16,30.07,0,0,0,0.00
2013-3-16,60.8,44.7,34.6,42.0,34.3,28.5,87,69,38,30.08,29.80,0,0,0,0.08
2013-3-17,46.8,37.2,31.7,28.5,23.4,20.0,77,59,37,30.06,29.90,0,0,0,0.00
2013-3-18,56.7,40.0,30.8,29.4,24.6,18.7,79,57,32,30.14,30.02,0,0,0,0.00
2013-3-19,55.4,39.1,24.1,27.4,21.3,15.7,80,54,24,30.16,29.81,0,0,0,0.00
2013-3-20,57.1,44.6,33.8,43.5,36.5,25.1,88,74,37,29.92,29.59,0,0,0,0.02
2013-3-21,44.3,35.6,30.8,30.0,25.4,21.1,82,67,49,30.04,29.92,0,0,0,0.00
2013-3-22,43.9,33.1,26.8,29.4,24.3,21.8,84,71,52,30.19,30.01,0,0,0,0.00
2013-3-23,47.3,33.0,23.4,28.4,22.2,18.5,84,66,39,30.25,30.15,0,0,0,0.00
2013-3-24,50.8,34.6,20.2,26.9,21.7,15.5,85,61,34,30.22,30.07,0,0,0,0.00
2013-3-25,58.0,44.7,33.5,26.6,24.0,21.1,65,45,27,30.08,29.91,0,0,0,0.00
2013-3-26,64.8,47.8,37.3,40.0,32.1,23.8,66,55,39,29.94,29.87,0,0,0,0.00
2013-3-27,57.2,46.8,38.0,46.1,37.3,30.6,85,70,53,29.95,29.90,0,0,0,0.00
2013-3-28,62.1,48.1,39.6,47.2,41.5,36.2,90,79,51,30.06,29.95,0,0,0,0.00
2013-3-29,65.2,50.5,43.6,49.3,43.6,39.3,93,78,53,30.17,30.07,0,0,0,0.00
2013-3-30,74.0,49.9,34.4,45.1,36.4,31.3,91,64,31,30.23,30.08,0,0,0,0.00
2013-3-31,77.6,51.3,32.6,43.8,35.7,28.0,85,58,30,30.08,29.87,0,0,0,0.00
2013-4-1,76.3,55.9,37.6,44.6,39.4,32.0,81,56,29,30.02,29.89,0,0,0,0.00
2013-4-2,71.6,54.9,43.2,43.9,39.7,36.3,78,58,36,30.10,30.02,0,0,0,0.00
2013-4-3,73.1,55.8,42.1,46.0,39.7,35.9,80,57,34,30.11,29.97,0,0,0,0.00
2013-4-4,65.9,51.3,42.3,44.1,40.5,34.6,88,68,45,29.97,29.74,0,0,0,0.00
2013-4-5,60.5,50.3,42.1,46.9,42.8,40.0,93,77,52,29.92,29.86,0,0,0,0.00
2013-4-6,59.0,46.6,41.6,47.5,41.3,38.0,91,82,59,29.93,29.83,0,0,0,0.00
2013-4-7,58.5,43.8,32.9,46.7,36.8,29.2,93,78,42,29.83,29.63,0,0,0,0.00
2013-4-8,53.6,40.5,32.8,36.3,32.5,29.0,88,74,51,30.13,29.78,0,0,0,0.00
2013-4-9,61.4,44.8,32.0,40.3,32.9,28.0,86,64,46,30.22,30.13,0,0,0,0.00
2013-4-10,62.8,46.8,37.6,48.5,37.3,31.0,80,70,52,30.19,29.95,0,0,0,0.00
2013-4-11,53.8,43.3,31.5,34.8,31.0,26.3,82,63,45,30.14,30.05,0,0,0,0.00
2013-4-12,61.9,45.8,29.0,40.7,32.8,24.8,86,64,34,30.06,29.67,0,0,0,0.00
2013-4-13,48.6,41.2,34.6,37.9,28.2,19.8,87,62,36,29.89,29.68,0,0,0,0.01
2013-4-14,50.6,39.7,32.2,32.0,28.0,23.6,73,63,47,29.91,29.79,0,0,0,0.01
2013-4-15,49.0,38.6,31.0,33.4,28.6,23.5,77,68,50,29.95,29.79,0,0,0,0.00
2013-4-16,44.5,37.9,31.7,28.9,25.3,20.3,81,62,45,30.20,29.96,0,0,0,0.00
2013-4-18,47.3,46.0,45.0,39.0,37.0,35.0,73,70,67,30.20,30.19,0,0,0,0.00
2013-4-19,52.6,46.7,44.1,48.4,42.6,38.3,89,85,72,30.19,29.99,0,0,0,0.75
2013-4-20,58.5,48.2,41.9,44.9,38.5,34.2,85,70,50,30.15,30.05,0,0,0,0.02
2013-4-21,59.0,46.8,37.4,40.4,36.3,32.2,86,68,45,30.16,30.02,0,0,0,0.06
2013-4-22,57.2,44.2,34.4,37.4,30.4,22.1,87,61,38,30.33,30.15,0,0,0,0.00
2013-4-23,57.2,42.7,28.3,31.2,23.7,17.6,74,50,23,30.31,30.12,0,0,0,0.00
2013-4-24,70.4,49.1,31.7,35.8,28.5,20.4,68,47,26,30.26,29.99,0,0,0,0.00
2013-4-25,72.4,55.2,38.0,39.8,33.2,26.4,65,46,26,30.08,29.96,0,0,0,0.00
2013-4-26,81.0,59.8,40.7,47.5,38.4,32.9,76,49,25,30.19,30.07,0,0,0,0.00
2013-4-27,78.3,61.1,45.0,43.7,34.7,29.5,61,40,19,30.19,30.05,0,0,0,0.00
2013-4-28,65.3,54.8,46.1,45.6,37.3,31.6,72,53,32,30.11,29.96,0,0,0,0.02
2013-4-29,58.0,50.3,38.2,44.2,32.0,17.6,78,51,27,29.98,29.86,0,0,0,0.03
2013-4-30,50.2,41.1,33.3,29.0,23.8,19.4,64,51,35,30.29,29.99,0,0,0,0.00
2013-5-1,59.6,45.0,27.7,33.4,23.9,18.3,76,47,21,30.51,30.29,0,0,0,0.00
2013-5-2,72.0,52.9,30.8,36.3,28.1,23.1,74,43,19,30.53,30.22,0,0,0,0.00
2013-5-3,72.7,59.1,45.4,41.5,35.6,30.3,59,43,26,30.22,30.12,0,0,0,0.00
2013-5-4,70.2,57.3,42.8,40.1,35.6,31.9,73,47,29,30.14,29.95,0,0,0,0.00
2013-5-5,75.2,60.0,40.7,43.6,36.4,30.4,69,44,24,29.95,29.81,0,0,0,0.00
2013-5-6,82.8,64.1,44.3,47.3,41.5,34.9,73,47,19,29.89,29.75,0,0,0,0.00
2013-5-7,83.3,66.6,48.6,52.7,43.1,35.7,71,46,19,29.90,29.80,0,0,0,0.00
2013-5-8,85.1,68.6,51.5,53.2,45.6,41.0,70,46,26,30.02,29.90,0,0,0,0.00
2013-5-9,87.5,70.1,50.8,55.6,45.5,40.5,73,44,22,30.11,30.02,0,0,0,0.00
2013-5-10,86.0,69.0,49.5,51.8,42.0,29.3,69,42,15,30.20,30.08,0,0,0,0.00
2013-5-11,86.8,71.9,56.2,58.7,49.1,42.1,65,46,29,30.17,30.03,0,0,0,0.01
2013-5-12,85.5,70.0,57.6,59.2,52.9,47.4,71,56,40,30.08,29.97,0,0,0,0.01
2013-5-13,78.5,62.7,50.9,56.3,48.3,40.0,74,60,44,30.15,29.91,0,0,0,0.01
2013-5-14,70.4,56.4,41.6,45.4,38.9,34.8,79,54,33,30.15,30.00,0,0,0,0.00
2013-5-15,69.7,55.6,43.4,43.3,37.8,33.3,71,53,33,30.06,29.90,0,0,0,0.00
2013-5-16,68.0,58.0,46.4,45.7,41.0,37.9,75,54,39,29.96,29.82,0,0,0,0.00
2013-5-17,65.2,54.2,45.7,46.7,43.5,38.5,84,68,50,30.00,29.85,0,0,0,0.02
2013-5-18,66.4,52.9,41.2,46.2,40.7,36.1,85,66,39,30.14,30.00,0,0,0,0.02
2013-5-19,63.2,53.3,44.6,44.3,41.2,36.8,79,65,46,30.24,30.14,0,0,0,0.00
2013-5-20,73.8,58.8,41.8,49.4,41.4,36.5,83,56,33,30.24,29.87,0,0,0,0.00
2013-5-21,73.1,52.3,40.1,48.0,41.0,36.5,88,68,37,29.87,29.62,0,0,0,0.29
2013-5-22,52.4,42.7,36.4,41.1,35.6,31.1,89,77,59,29.94,29.82,0,0,0,0.06
2013-5-23,61.0,46.0,30.4,42.4,34.9,27.6,90,67,41,29.98,29.90,0,0,0,0.01
2013-5-24,56.2,46.3,38.9,47.2,40.0,32.9,90,79,62,30.00,29.92,0,0,0,0.21
2013-5-25,66.2,52.4,36.9,46.5,40.5,33.9,90,66,43,30.00,29.92,0,0,0,0.00
2013-5-26,63.9,52.6,43.7,51.8,44.3,37.4,88,74,58,29.98,29.91,0,0,0,0.14
2013-5-27,65.7,52.4,39.6,51.1,45.6,36.4,90,79,55,29.98,29.79,0,0,0,0.09
2013-5-28,64.4,53.7,44.3,48.9,45.1,40.0,91,74,51,29.87,29.79,0,0,0,0.06
2013-5-29,58.5,48.9,42.3,53.5,45.1,38.7,93,87,73,29.95,29.70,0,0,0,0.52
2013-5-30,64.6,52.0,43.4,46.3,41.1,35.2,94,69,43,30.14,29.95,0,0,0,0.06
2013-5-31,70.0,56.2,40.0,46.7,39.5,33.9,80,56,35,30.23,30.14,0,0,0,0.00
2013-6-1,78.1,60.1,40.9,50.1,43.2,35.5,84,56,33,30.19,29.97,0,0,0,0.00
2013-6-2,70.2,60.8,52.2,48.2,42.6,39.5,69,53,37,29.97,29.91,0,0,0,0.00
2013-6-3,77.8,62.8,46.8,51.0,42.7,36.3,76,50,32,30.03,29.96,0,0,0,0.00
2013-6-4,81.4,64.8,47.0,50.3,43.3,36.3,68,48,32,30.10,30.02,0,0,0,0.00
2013-6-5,87.7,68.8,49.9,54.1,46.6,40.2,72,47,26,30.08,29.97,0,0,0,0.00
2013-6-6,89.6,71.4,54.0,57.0,50.2,43.4,72,49,30,30.03,29.92,0,0,0,0.00
2013-6-7,86.8,72.1,57.8,52.8,47.8,38.5,71,45,23,30.04,29.94,0,0,0,0.00
2013-6-8,87.8,69.5,50.0,45.6,40.1,34.0,65,38,19,30.07,29.97,0,0,0,0.00
2013-6-9,85.0,68.4,51.5,53.1,43.6,33.4,68,43,29,30.00,29.87,0,0,0,0.00
2013-6-10,82.8,66.5,49.3,45.4,36.4,31.3,52,35,19,29.90,29.75,0,0,0,0.00
2013-6-11,73.8,61.1,50.8,45.0,37.9,32.1,53,43,32,30.04,29.81,0,0,0,0.00
2013-6-12,52.7,51.1,49.3,35.8,35.3,34.7,59,55,51,30.06,30.03,0,0,0,0.00
2013-6-13,69.5,58.9,49.9,40.4,37.6,36.2,63,46,33,30.12,30.03,0,0,0,0.00
2013-6-14,73.3,58.3,45.9,49.7,42.7,37.8,85,59,34,30.18,30.01,0,0,0,0.02
2013-6-15,83.2,64.7,42.3,48.6,40.2,33.0,80,46,19,30.03,29.89,0,0,0,0.16
2013-6-16,89.3,75.6,58.3,48.5,43.4,34.3,49,33,17,30.02,29.90,0,0,0,0.00
2013-6-17,86.2,71.1,56.5,50.8,46.8,42.7,62,43,29,30.04,29.81,0,0,0,0.00
2013-6-18,69.8,58.6,52.0,51.0,47.4,44.4,80,67,51,29.93,29.82,0,0,0,0.02
2013-6-19,52.6,46.9,43.2,44.8,43.1,40.2,93,87,71,29.98,29.80,0,0,0,1.60
2013-6-20,69.1,55.3,45.0,51.0,42.7,36.5,94,67,36,30.05,29.95,0,0,0,0.02
2013-6-21,64.1,53.5,47.3,47.8,44.0,39.6,84,71,52,30.09,30.04,0,0,0,0.03
2013-6-22,72.9,58.0,43.9,52.5,45.3,39.7,87,65,39,30.08,29.91,0,0,0,0.00
2013-6-23,74.3,61.4,48.4,54.9,49.4,43.5,86,67,42,29.91,29.65,0,0,0,0.02
2013-6-24,64.3,57.4,49.3,57.4,52.8,46.7,91,85,75,29.79,29.66,0,0,0,0.34
2013-6-25,66.8,59.2,49.0,59.1,54.3,46.4,94,84,72,29.91,29.78,0,0,0,0.21
2013-6-26,73.1,61.5,54.4,61.7,56.9,52.4,95,85,66,30.11,29.90,0,0,0,0.15
2013-6-27,89.3,68.0,53.1,66.3,58.7,51.3,96,75,41,30.17,30.09,0,0,0,0.01
2013-6-28,93.1,76.5,59.9,66.3,60.4,54.6,83,59,38,30.20,30.03,0,0,0,0.00
2013-6-29,91.1,78.4,67.7,65.3,61.4,58.5,75,57,40,30.07,29.97,0,0,0,0.00
2013-6-30,95.8,79.9,62.8,66.6,59.7,50.6,81,53,25,30.07,29.93,0,0,0,0.00
2013-7-1,99.9,83.8,65.3,67.6,61.6,55.7,75,49,33,30.01,29.91,0,0,0,0.00
2013-7-2,103.0,87.6,71.5,67.6,59.4,41.8,68,42,15,30.05,29.96,0,0,0,0.00
2013-7-3,93.2,80.9,68.8,56.5,50.5,42.4,52,36,23,30.07,29.94,0,0,0,0.00
2013-7-4,86.4,73.9,57.6,43.3,39.8,35.2,50,31,18,29.99,29.87,0,0,0,0.00
2013-7-5,80.6,68.6,55.8,47.4,43.1,38.5,59,41,28,29.91,29.84,0,0,0,0.00
2013-7-6,84.8,69.2,52.2,51.2,44.9,39.1,65,44,26,29.92,29.80,0,0,0,0.00
2013-7-7,90.4,74.6,56.7,54.0,48.0,43.1,68,41,25,29.90,29.80,0,0,0,0.00
2013-7-8,86.6,73.4,60.1,51.8,45.0,40.9,62,38,22,30.07,29.86,0,0,0,0.01
2013-7-9,92.2,73.6,53.1,52.3,46.9,41.1,68,41,23,30.13,29.97,0,0,0,0.00
2013-7-10,92.2,77.9,61.2,56.5,46.6,37.1,59,35,22,30.00,29.85,0,0,0,0.00
2013-7-11,84.4,72.6,60.5,44.0,37.9,31.0,42,29,21,29.94,29.86,0,0,0,0.00
2013-7-12,83.2,69.5,56.3,42.4,34.1,26.1,46,28,18,30.01,29.86,0,0,0,0.00
2013-7-13,81.7,67.8,52.4,44.7,38.1,31.7,55,36,18,30.11,30.01,0,0,0,0.00
2013-7-14,89.5,73.3,54.4,49.4,41.7,34.9,58,34,19,30.11,29.93,0,0,0,0.00
2013-7-15,88.6,74.3,57.2,46.5,40.6,34.5,52,31,19,29.99,29.88,0,0,0,0.00
2013-7-16,91.1,75.1,63.7,56.2,46.9,38.6,69,38,24,29.94,29.79,0,0,0,0.07
2013-7-17,89.6,76.1,61.7,57.3,50.0,41.0,77,45,22,30.10,29.89,0,0,0,0.01
2013-7-18,93.2,77.3,59.2,52.0,43.8,38.2,55,33,17,30.15,30.01,0,0,0,0.00
2013-7-19,94.9,78.7,61.6,52.5,42.9,35.7,50,30,16,30.08,29.95,0,0,0,0.00
2013-7-20,94.3,76.5,59.0,52.8,41.0,27.4,53,32,11,30.00,29.86,0,0,0,0.00
2013-7-21,95.2,76.0,56.7,49.2,38.8,26.9,54,30,7,29.92,29.82,0,0,0,0.00
2013-7-22,92.5,76.1,56.5,48.4,38.5,27.6,54,29,10,29.98,29.87,0,0,0,0.00
2013-7-23,94.3,75.7,55.4,51.0,40.8,33.7,55,32,15,30.06,29.92,0,0,0,0.00
2013-7-24,96.8,79.7,61.4,51.8,40.8,32.9,47,27,15,30.02,29.92,0,0,0,0.00
2013-7-25,97.2,79.0,61.9,52.9,40.7,31.1,50,28,12,30.05,29.97,0,0,0,0.00
2013-7-26,96.5,76.7,56.3,48.5,37.0,26.2,49,27,10,30.11,29.98,0,0,0,0.00
2013-7-27,88.2,76.0,63.9,44.8,36.3,27.8,41,25,13,30.05,29.90,0,0,0,0.00
2013-7-28,85.5,71.1,58.1,38.1,34.0,26.1,40,27,14,29.93,29.84,0,0,0,0.00
2013-7-29,85.5,70.3,51.5,45.0,37.4,32.1,53,32,18,29.96,29.87,0,0,0,0.00
2013-7-30,88.4,76.1,64.1,46.0,40.2,35.6,38,28,19,30.07,29.94,0,0,0,0.00
2013-7-31,85.3,72.8,59.0,49.6,43.7,39.5,51,36,22,30.07,29.94,0,0,0,0.00
2013-8-1,81.2,67.0,57.6,56.7,49.4,42.5,84,56,29,30.00,29.90,0,0,0,0.14
2013-8-2,75.8,65.4,55.3,52.2,49.9,47.2,80,59,38,30.05,29.98,0,0,0,0.00
2013-8-3,80.8,67.6,53.1,56.5,48.8,45.2,78,54,31,30.10,29.99,0,0,0,0.00
2013-8-4,86.8,71.2,54.0,55.0,46.9,43.2,69,45,24,30.07,29.92,0,0,0,0.00
2013-8-5,88.0,72.9,62.8,54.7,47.2,42.6,53,41,23,29.99,29.92,0,0,0,0.00
2013-8-6,89.6,74.7,55.4,53.6,46.2,40.1,66,40,19,30.03,29.89,0,0,0,0.00
2013-8-7,91.4,76.9,59.4,54.2,40.5,26.4,58,32,10,29.98,29.88,0,0,0,0.00
2013-8-8,90.5,77.4,65.7,50.0,45.3,32.9,47,33,20,29.97,29.87,0,0,0,0.00
2013-8-9,90.7,79.2,70.6,52.3,48.3,44.9,45,35,22,29.93,29.78,0,0,0,0.00
2013-8-10,86.6,72.4,62.6,59.1,53.0,48.8,80,53,33,30.01,29.87,0,0,0,0.07
2013-8-11,84.6,71.2,60.3,58.3,53.9,50.6,75,56,36,30.02,29.91,0,0,0,0.01
2013-8-12,85.0,72.6,61.0,59.8,51.1,47.4,75,48,34,30.09,29.93,0,0,0,0.06
2013-8-13,86.6,73.1,56.9,58.8,50.8,44.1,76,49,25,30.08,29.94,0,0,0,0.00
2013-8-14,92.0,75.8,58.7,54.8,48.0,43.9,62,40,23,29.99,29.86,0,0,0,0.00
2013-8-15,91.8,77.0,61.6,54.2,47.6,43.6,54,37,22,29.99,29.85,0,0,0,0.00
2013-8-16,88.4,75.2,63.7,58.0,53.2,50.0,62,48,29,30.03,29.92,0,0,0,0.00
2013-8-17,87.8,75.0,62.8,60.6,53.9,50.0,69,50,32,30.05,29.95,0,0,0,0.00
2013-8-18,87.3,73.9,60.8,52.8,47.7,43.8,62,42,24,30.10,29.99,0,0,0,0.00
2013-8-19,87.5,73.1,57.2,55.2,46.7,43.3,65,42,23,30.09,29.96,0,0,0,0.00
2013-8-20,85.9,72.9,60.8,52.1,45.2,36.6,60,40,19,30.07,29.96,0,0,0,0.00
2013-8-21,87.1,72.8,55.3,50.0,43.5,38.3,56,37,21,30.06,29.93,0,0,0,0.00
2013-8-22,86.2,67.1,58.5,56.9,46.1,39.3,82,49,24,29.98,29.84,0,0,0,0.07
2013-8-23,83.0,68.6,55.1,62.6,51.7,42.5,87,60,25,29.92,29.81,0,0,0,0.00
2013-8-24,83.3,68.7,55.8,55.2,47.9,42.8,65,48,30,29.89,29.75,0,0,0,0.02
2013-8-25,82.6,67.6,56.3,55.0,49.5,45.1,68,54,29,29.94,29.79,0,0,0,0.01
2013-8-26,82.6,66.4,51.1,55.3,48.2,42.5,79,55,25,30.00,29.87,0,0,0,0.00
2013-8-27,83.9,69.7,54.5,53.7,49.5,45.3,73,51,30,29.99,29.78,0,0,0,0.00
2013-8-28,89.3,72.4,56.3,55.5,48.3,43.1,69,46,21,29.92,29.81,0,0,0,0.00
2013-8-29,86.4,71.4,58.0,56.8,49.7,44.4,64,48,25,30.07,29.89,0,0,0,0.00
2013-8-30,81.0,71.2,60.1,56.5,52.6,49.5,70,53,38,30.13,30.01,0,0,0,0.00
2013-8-31,87.8,72.5,56.0,57.3,50.6,46.3,73,49,28,30.07,29.86,0,0,0,0.00
2013-9-1,84.8,71.6,55.8,56.4,49.1,43.7,67,47,29,29.92,29.81,0,0,0,0.00
2013-9-2,72.5,67.4,63.4,63.8,58.8,47.9,90,75,43,29.97,29.82,0,0,0,0.25
2013-9-3,81.2,71.1,63.5,65.0,59.3,56.3,79,67,52,30.01,29.90,0,0,0,0.00
2013-9-4,82.6,70.6,60.8,63.6,58.5,54.4,81,67,44,30.04,29.92,0,0,0,0.09
2013-9-5,78.8,65.3,59.4,65.1,58.4,50.4,93,80,44,30.05,29.85,0,0,0,0.26
2013-9-6,71.8,63.0,54.7,55.0,50.2,46.5,86,65,43,30.12,29.98,0,0,0,0.00
2013-9-7,75.1,64.2,52.6,55.5,51.5,47.3,84,65,43,30.12,29.97,0,0,0,0.00
2013-9-8,74.5,65.2,56.2,53.9,49.7,47.2,78,59,39,30.07,30.00,0,0,0,0.00
2013-9-9,79.2,66.8,52.9,56.1,49.4,44.6,75,55,35,30.06,29.93,0,0,0,0.00
2013-9-10,83.2,68.4,52.6,55.8,48.5,39.2,75,52,22,30.04,29.93,0,0,0,0.00
2013-9-11,88.6,71.2,53.5,56.4,49.9,44.6,75,50,24,30.07,29.95,0,0,0,0.00
2013-9-12,86.2,73.5,59.0,58.2,51.9,47.0,67,48,34,30.03,29.89,0,0,0,0.00
2013-9-13,86.8,74.1,60.5,60.6,53.1,45.7,70,50,28,29.94,29.80,0,0,0,0.00
2013-9-14,86.8,71.2,56.5,57.3,51.5,46.7,72,52,32,29.91,29.79,0,0,0,0.00
2013-9-15,83.3,71.4,59.0,56.0,52.8,46.7,75,54,31,29.86,29.67,0,0,0,0.01
2013-9-16,74.2,64.5,55.8,55.7,49.2,44.6,74,59,42,29.92,29.81,0,0,0,0.00
2013-9-17,61.9,54.9,50.8,51.1,46.6,42.1,88,74,62,29.88,29.74,0,0,0,0.08
2013-9-18,59.0,52.2,43.9,49.3,44.2,38.4,84,74,63,30.08,29.88,0,0,0,0.04
2013-9-19,69.8,52.1,37.1,48.0,39.3,33.5,90,67,32,30.12,29.94,0,0,0,0.00
2013-9-20,76.1,63.3,45.4,44.2,37.3,33.2,66,41,24,29.94,29.58,0,0,0,0.00
2013-9-21,66.1,57.9,53.3,49.4,45.7,42.6,77,64,49,29.77,29.67,0,0,0,0.00
2013-9-22,66.8,56.2,49.9,48.3,45.1,39.3,89,68,40,29.82,29.70,0,0,0,0.19
2013-9-23,65.3,54.6,43.7,48.6,43.3,38.6,91,68,38,29.98,29.82,0,0,0,0.01
2013-9-24,56.5,49.8,42.7,47.5,44.5,40.2,92,82,67,29.92,29.80,0,0,0,0.46
2013-9-25,50.9,46.9,42.8,42.7,41.5,40.0,93,82,70,29.85,29.75,0,0,0,0.01
2013-9-26,51.5,47.8,44.6,43.1,41.5,39.8,87,79,68,30.04,29.83,0,0,0,0.01
2013-9-27,56.2,48.3,42.8,44.6,41.3,37.9,94,78,54,30.07,29.98,0,0,0,0.42
2013-9-28,59.6,52.4,46.1,50.2,46.8,44.5,95,82,60,29.98,29.60,0,0,0,0.18
2013-9-29,60.5,48.0,45.7,46.5,43.9,41.1,94,86,57,29.78,29.57,0,0,0,0.42
2013-9-30,58.7,50.2,40.0,46.2,39.7,34.5,95,70,41,29.95,29.55,0,0,0,0.37
2013-10-1,56.9,45.4,35.6,43.8,37.8,32.9,90,76,44,30.14,29.94,0,0,0,0.14
2013-10-2,50.6,40.3,31.9,41.1,34.9,29.6,94,82,58,30.14,29.94,0,0,0,0.01
2013-10-3,49.3,44.4,40.1,39.2,37.4,34.9,87,77,64,30.32,29.99,0,0,0,0.02
2013-10-4,56.9,44.9,34.2,40.0,34.1,30.3,89,68,38,30.41,30.31,0,0,0,0.00
2013-10-5,60.8,46.0,31.1,41.9,34.8,27.9,89,67,45,30.39,30.23,0,0,0,0.00
2013-10-6,65.5,53.6,40.7,40.0,34.0,30.0,68,50,31,30.24,29.98,0,0,0,0.00
2013-10-16,59.0,50.8,35.5,42.5,37.5,31.6,88,61,44,30.12,30.05,0,0,0,0.00
2013-10-17,58.5,45.3,33.5,42.1,34.4,29.0,86,67,45,30.21,30.12,0,0,0,0.00
2013-10-18,53.6,41.7,30.4,39.8,33.9,26.3,88,74,58,30.26,30.15,0,0,0,0.00
2013-11-16,41.0,38.7,36.7,32.0,30.4,28.9,78,72,62,29.73,29.51,0,0,0,0.44
2013-11-17,47.9,39.3,35.1,38.0,32.7,28.8,90,77,63,29.96,29.72,0,0,0,0.03
2013-11-18,49.0,41.7,34.4,37.7,32.5,28.4,87,70,57,29.96,29.78,0,0,0,0.05
2013-11-19,48.2,43.5,38.3,42.8,39.3,34.9,93,85,78,29.79,29.70,0,0,0,0.33
2013-11-20,38.2,31.8,23.4,34.6,21.4,11.2,88,66,48,30.26,29.79,0,0,0,0.01
2013-11-21,37.3,27.4,20.5,17.2,13.4,9.3,69,56,34,30.52,30.26,0,0,0,0.00
2013-11-22,35.3,24.1,15.5,23.2,16.5,10.6,82,73,61,30.59,30.44,0,0,0,0.00
2013-11-23,36.5,25.3,17.5,24.4,17.5,12.5,83,73,58,30.45,30.22,0,0,0,0.00
2013-11-24,37.8,26.7,18.4,26.8,20.3,14.2,87,77,62,30.27,30.17,0,0,0,0.00
2013-11-25,41.0,30.6,24.8,30.7,24.6,20.4,87,79,64,30.33,30.26,0,0,0,0.00
2013-11-26,49.5,37.1,25.6,29.6,25.0,21.5,86,64,41,30.28,30.10,0,0,0,0.00
2013-11-27,50.0,35.0,25.9,33.7,26.2,21.3,84,71,47,30.10,29.99,0,0,0,0.00
2013-11-28,44.3,32.4,25.7,34.0,26.7,22.1,88,80,65,30.13,30.03,0,0,0,0.00
2013-11-29,45.2,34.0,23.6,36.1,29.1,20.8,91,83,64,30.20,30.13,0,0,0,0.00
2013-11-30,48.2,37.4,33.8,41.0,34.0,30.9,91,88,73,30.25,30.19,0,0,0,0.02
2013-12-2,28.4,28.2,27.7,23.0,22.7,22.1,82,80,79,29.85,29.82,0,0,0,0.00
2013-12-3,27.9,23.7,20.3,23.7,18.1,13.8,85,79,68,30.04,29.84,0,0,0,0.00
2013-12-4,22.1,16.1,6.5,16.0,9.4,1.1,80,75,65,30.16,30.03,0,0,0,0.00
2013-12-5,14.4,7.2,1.3,8.2,2.4,-3.0,84,80,74,30.16,30.06,0,0,0,0.00
2013-12-6,19.1,13.0,5.4,14.3,8.7,1.5,87,83,77,30.07,29.87,0,0,0,0.00
2013-12-7,17.5,7.8,-0.9,13.1,0.6,-8.7,85,72,63,30.18,29.86,0,0,0,0.00
2013-12-8,10.3,0.9,-5.4,1.9,-5.6,-12.0,81,74,68,30.39,30.17,0,0,0,0.00
2013-12-9,24.5,13.9,-0.7,12.6,5.7,-5.1,84,70,59,30.38,30.28,0,0,0,0.00
2013-12-10,25.0,22.2,19.1,15.8,12.9,9.1,72,67,61,30.33,30.27,0,0,0,0.00
2013-12-11,34.4,25.2,17.1,21.5,16.6,10.7,78,70,58,30.34,30.26,0,0,0,0.00
2013-12-12,35.6,29.2,23.8,24.8,19.0,15.0,85,66,54,30.26,30.09,0,0,0,0.00
2013-12-13,35.1,30.8,27.0,31.1,27.7,23.2,92,88,83,30.37,30.12,0,0,0,0.01
2013-12-14,33.1,33.0,32.9,30.3,30.2,30.1,89,89,89,30.37,30.37,0,0,0,0.00
2013-12-27,34.2,34.1,34.0,27.2,26.6,26.0,76,74,72,30.16,30.14,0,0,0,0.00
2013-12-28,42.8,35.9,26.8,33.3,29.0,22.4,86,76,60,30.36,30.15,0,0,0,0.00
2013-12-29,36.0,27.7,20.5,28.1,22.9,17.5,90,83,71,30.35,30.18,0,0,0,0.00
2013-12-30,38.2,31.4,24.1,32.0,26.8,20.1,93,84,66,30.24,30.13,0,0,0,0.21
2013-12-31,38.9,35.4,33.5,36.0,32.5,30.3,94,90,80,30.26,30.12,0,0,0,0.16
2014-1-1,36.5,33.8,31.7,35.2,32.0,29.9,95,93,91,30.34,30.25,0,0,0,0.00
2014-1-2,42.7,35.9,29.3,36.3,31.2,27.4,94,83,72,30.27,29.89,0,0,0,0.01